Weather History for KORS - October, 2013

Change the Weather History Date:

Wednesday, October 23, 2013

  Actual Average (KBLI) Record (KBLI)
Temperature  
Mean Temperature 44 °F 48 °F  
Max Temperature 48 °F 56 °F 69 °F (1982)
Min Temperature 41 °F 41 °F 30 °F (1954)
Degree Days  
Heating Degree Days 20 17  
Month to date heating degree days 330  
Cooling Degree Days 0 0  
Month to date cooling degree days 0  
Year to date cooling degree days 42  
Moisture  
Dew Point 45 °F    
Average Humidity 100    
Maximum Humidity 100    
Minimum Humidity 100    
Precipitation  
Precipitation 0.00 in 0.14 in 1.06 in (2009)
Month to date precipitation 2.43  
Year to date precipitation 24.56  
Sea Level Pressure  
Sea Level Pressure 30.02 in    
Wind  
Wind Speed 4 mph (NNW)    
Max Wind Speed 7 mph    
Max Gust Speed -    
Visibility 1 miles    
Events Fog , Rain    
T = Trace of Precipitation, MM = Missing Value Source: NWS Daily Summary

Daily Weather History Graph

Daily Weather History Graph

Search for Another Location

Airport or City:

Trip Planner

Search our weather history database for the weather conditions in past years. The results will help you decide how hot, cold, wet, or windy it might be!

Date:

Astronomy

Oct. 23, 2013 Rise Set
Actual Time 7:44 AM PDT 6:06 PM PDT
Civil Twilight 7:12 AM PDT 6:38 PM PDT
Nautical Twilight 6:35 AM PDT 7:15 PM PDT
Astronomical Twilight 5:59 AM PDT 7:51 PM PDT
Moon 9:29 PM PDT (10/23) 12:18 PM PDT (10/23)
Length of Visible Light 11h 26m
Length of Day
10h 21m
Waning Gibbous, 78% of the Moon is Illuminated
Oct 23
Waning Gibbous
Oct 26
Last Quarter
Nov 3
New
Nov 9
First Quarter
Nov 17
Full

Hourly Weather History & Observations

Time (PDT) Temp. Windchill Dew Point Humidity Pressure Visibility Wind Dir Wind Speed Gust Speed Precip Events Conditions
12:15 AM 44.6 °F 42.2 °F 44.6 °F 100% 30.05 in 0.2 mi North 4.6 mph - N/A Fog Fog
12:35 AM 44.6 °F 43.1 °F 44.6 °F 100% 30.04 in 0.2 mi NNW 3.5 mph - N/A Fog Fog
12:55 AM 44.6 °F 43.1 °F 44.6 °F 100% 30.04 in 0.2 mi North 3.5 mph - N/A Fog Fog
1:15 AM 44.6 °F 41.4 °F 44.6 °F 100% 30.05 in 0.2 mi NNW 5.8 mph - N/A Fog Fog
1:35 AM 46.4 °F 44.3 °F 46.4 °F 100% 30.05 in 0.2 mi North 4.6 mph - N/A Fog Fog
1:55 AM 46.4 °F 43.5 °F 46.4 °F 100% 30.04 in 0.2 mi North 5.8 mph - N/A Fog Fog
3:35 AM 46.4 °F 45.2 °F 46.4 °F 100% 30.04 in 0.2 mi NNW 3.5 mph - N/A Rain Light Rain
3:55 AM 46.4 °F 43.5 °F 46.4 °F 100% 30.04 in 0.2 mi North 5.8 mph - N/A Fog Fog
4:15 AM 44.6 °F 43.1 °F 44.6 °F 100% 30.03 in 0.2 mi North 3.5 mph - N/A Fog Fog
4:35 AM 44.6 °F 43.1 °F 44.6 °F 100% 30.04 in 0.2 mi NNW 3.5 mph - N/A Fog Fog
4:55 AM 44.6 °F 41.4 °F 44.6 °F 100% 30.04 in 0.2 mi North 5.8 mph - N/A Fog Fog
5:15 AM 44.6 °F 41.4 °F 44.6 °F 100% 30.04 in 0.2 mi North 5.8 mph - N/A Fog Fog
5:35 AM 44.6 °F 41.4 °F 44.6 °F 100% 30.03 in 0.2 mi North 5.8 mph - N/A Fog Fog
5:55 AM 44.6 °F 41.4 °F 44.6 °F 100% 30.03 in 0.2 mi North 5.8 mph - N/A Fog Fog
6:15 AM 44.6 °F 40.7 °F 44.6 °F 100% 30.03 in 0.2 mi North 6.9 mph - N/A Fog Fog
6:35 AM 44.6 °F 40.7 °F 44.6 °F 100% 30.03 in 0.2 mi North 6.9 mph - N/A Fog Fog
6:55 AM 44.6 °F 42.2 °F 44.6 °F 100% 30.03 in 0.2 mi North 4.6 mph - N/A Fog Fog
7:15 AM 44.6 °F 41.4 °F 44.6 °F 100% 30.03 in 0.2 mi NNW 5.8 mph - N/A Fog Fog
7:35 AM 44.6 °F 42.2 °F 44.6 °F 100% 30.03 in 0.2 mi NNW 4.6 mph - N/A Fog Fog
7:55 AM 44.6 °F 41.4 °F 44.6 °F 100% 30.04 in 0.2 mi North 5.8 mph - N/A Fog Fog
8:15 AM 44.6 °F 40.7 °F 44.6 °F 100% 30.04 in 0.2 mi NNW 6.9 mph - N/A Fog Fog
8:35 AM 44.6 °F 41.4 °F 44.6 °F 100% 30.05 in 0.2 mi NNW 5.8 mph - N/A Fog Fog
8:55 AM 46.4 °F 44.3 °F 46.4 °F 100% 30.05 in 0.2 mi NNW 4.6 mph - N/A Fog Fog
9:15 AM 44.6 °F 41.4 °F 44.6 °F 100% 30.05 in 0.2 mi North 5.8 mph - N/A Fog Fog
9:35 AM 46.4 °F 42.9 °F 46.4 °F 100% 30.05 in 0.2 mi North 6.9 mph - N/A Fog Fog
9:55 AM 46.4 °F 43.5 °F 46.4 °F 100% 30.05 in 0.2 mi NNW 5.8 mph - N/A Fog Fog
10:15 AM 46.4 °F 44.3 °F 46.4 °F 100% 30.05 in 0.2 mi North 4.6 mph - N/A Fog Fog
10:35 AM 46.4 °F 43.5 °F 46.4 °F 100% 30.06 in 0.2 mi North 5.8 mph - N/A Fog Fog
10:55 AM 46.4 °F 44.3 °F 46.4 °F 100% 30.06 in 0.2 mi North 4.6 mph - N/A Fog Fog
11:15 AM 46.4 °F 42.9 °F 46.4 °F 100% 30.06 in 0.2 mi North 6.9 mph - N/A Fog Fog
11:35 AM 46.4 °F 43.5 °F 46.4 °F 100% 30.06 in 0.2 mi NNW 5.8 mph - N/A Fog Fog
11:55 AM 46.4 °F 44.3 °F 46.4 °F 100% 30.06 in 0.2 mi North 4.6 mph - N/A Fog Fog
12:15 PM 46.4 °F 44.3 °F 46.4 °F 100% 30.05 in 0.2 mi NNW 4.6 mph - N/A Fog Fog
12:35 PM 46.4 °F 43.5 °F 46.4 °F 100% 30.05 in 0.2 mi North 5.8 mph - N/A Fog Fog
12:55 PM 46.4 °F 42.9 °F 46.4 °F 100% 30.04 in 0.2 mi NNW 6.9 mph - N/A Fog Fog
1:15 PM 46.4 °F 43.5 °F 46.4 °F 100% 30.04 in 0.2 mi NNW 5.8 mph - N/A Fog Fog
1:35 PM 46.4 °F 43.5 °F 46.4 °F 100% 30.04 in 0.2 mi NNW 5.8 mph - N/A Fog Fog
1:55 PM 46.4 °F 44.3 °F 46.4 °F 100% 30.03 in 0.2 mi NNW 4.6 mph - N/A Fog Fog
2:15 PM 48.2 °F - 48.2 °F 100% 30.02 in 0.2 mi NNW 5.8 mph - N/A Fog Fog
2:35 PM 46.4 °F 44.3 °F 46.4 °F 100% 30.02 in 0.2 mi NNW 4.6 mph - N/A Fog Fog
2:55 PM 46.4 °F 44.3 °F 46.4 °F 100% 30.01 in 0.2 mi North 4.6 mph - N/A Fog Fog
3:15 PM 46.4 °F 43.5 °F 46.4 °F 100% 30.01 in 0.2 mi North 5.8 mph - N/A Fog Fog
3:35 PM 46.4 °F 43.5 °F 46.4 °F 100% 30.01 in 0.2 mi North 5.8 mph - N/A Fog Fog
3:55 PM 48.2 °F - 48.2 °F 100% 30.00 in 0.2 mi NNW 5.8 mph - N/A Fog Fog
4:15 PM 48.2 °F - 48.2 °F 100% 30.00 in 0.5 mi North 4.6 mph - N/A Fog Fog
4:35 PM 46.4 °F 44.3 °F 46.4 °F 100% 30.00 in 0.5 mi North 4.6 mph - N/A Fog Fog
4:55 PM 46.4 °F 44.3 °F 46.4 °F 100% 29.99 in 0.2 mi North 4.6 mph - N/A Fog Fog
5:15 PM 46.4 °F 45.2 °F 46.4 °F 100% 29.99 in 0.2 mi NW 3.5 mph - N/A Fog Fog
5:35 PM 46.4 °F - 46.4 °F 100% 29.99 in 0.2 mi Calm Calm - N/A Fog Fog
5:55 PM 46.4 °F - 46.4 °F 100% 29.99 in 0.2 mi Calm Calm - N/A Fog Fog
6:15 PM 46.4 °F - 46.4 °F 100% 29.99 in 0.2 mi Calm Calm - N/A Fog Fog
6:35 PM 46.4 °F - 46.4 °F 100% 29.99 in 0.2 mi Calm Calm - N/A Fog Fog
6:55 PM 46.4 °F - 46.4 °F 100% 29.99 in 0.2 mi Calm Calm - N/A Fog Fog
7:15 PM 46.4 °F - 46.4 °F 100% 29.99 in 0.2 mi Calm Calm - N/A Fog Fog
7:35 PM 46.4 °F - 46.4 °F 100% 29.99 in 0.2 mi Calm Calm - N/A Fog Fog
7:55 PM 46.4 °F - 46.4 °F 100% 29.99 in 0.2 mi Calm Calm - N/A Fog Fog
8:15 PM 46.4 °F - 46.4 °F 100% 29.99 in 0.2 mi Calm Calm - N/A Fog Fog
8:35 PM 44.6 °F - 44.6 °F 100% 29.99 in 0.5 mi Calm Calm - N/A Fog Fog
8:55 PM 42.8 °F - 42.8 °F 100% 30.00 in 0.2 mi Calm Calm - N/A Fog Fog
9:15 PM 42.8 °F - 42.8 °F 100% 30.00 in 0.5 mi North - - N/A Fog Fog
9:35 PM 41.0 °F - 41.0 °F 100% 30.00 in 1.2 mi Calm Calm - N/A   Clear
9:55 PM 42.8 °F - 42.8 °F 100% 30.01 in 9.0 mi Calm Calm - N/A   Clear
10:15 PM 41.0 °F - 41.0 °F 100% 30.01 in 6.0 mi Calm Calm - N/A   Clear
10:35 PM 41.0 °F - 41.0 °F 100% 30.01 in 1.2 mi Calm Calm - N/A   Mostly Cloudy
10:55 PM 41.0 °F - 41.0 °F 100% 30.01 in 1.0 mi Calm Calm - N/A   Mostly Cloudy
11:15 PM 41.0 °F - 41.0 °F 100% 30.01 in 0.8 mi Calm Calm - N/A   Mist
11:35 PM 41.0 °F - 41.0 °F 100% 30.01 in 5.0 mi Calm Calm - N/A   Clear
11:55 PM 41.0 °F - 41.0 °F 100% 30.02 in 5.0 mi Calm Calm - N/A   Clear